This is the latest recevied weather packets stored in our database for station/object SV8FES. If no packets are shown the sender has not sent any weather packets the latest 10 day(s).
| Time | Temp. | Humidity | Pressure | Rain* | Wind** | Luminosity | Snow |
|---|---|---|---|---|---|---|---|
| 1787668969 | 29.44° C | 62% | 1012.3 hPa | 0 mm | - | 381 W/m² | - |
| 1787668910 | 29.44° C | 63% | 1012.2 hPa | 0 mm | - | 387 W/m² | - |
| 1787668850 | 29.44° C | 62% | 1012.3 hPa | 0 mm | - | 390 W/m² | - |
| 1787668790 | 29.44° C | 62% | 1012.3 hPa | 0 mm | - | 392 W/m² | - |
| 1787668727 | 29.44° C | 62% | 1012.4 hPa | 0 mm | - | 397 W/m² | - |
| 1787668664 | 29.44° C | 62% | 1012.2 hPa | 0 mm | - | 399 W/m² | - |
| 1787668604 | 29.44° C | 62% | 1012.3 hPa | 0 mm | - | 403 W/m² | - |
| 1787668544 | 29.44° C | 61% | 1012.3 hPa | 0 mm | - | 406 W/m² | - |
| 1787668484 | 29.44° C | 62% | 1012.2 hPa | 0 mm | - | 408 W/m² | - |
| 1787668421 | 29.44° C | 62% | 1012.2 hPa | 0 mm | - | 413 W/m² | - |
| 1787668358 | 29.44° C | 62% | 1012.3 hPa | 0 mm | - | 415 W/m² | - |
| 1787668298 | 29.44° C | 61% | 1012.2 hPa | 0 mm | - | 418 W/m² | - |
| 1787668236 | 29.44° C | 61% | 1012.3 hPa | 0 mm | - | 420 W/m² | - |
| 1787668178 | 29.44° C | 61% | 1012.4 hPa | 0 mm | - | 424 W/m² | - |
| 1787668115 | 29.44° C | 60% | 1012.4 hPa | 0 mm | - | 425 W/m² | - |
| 1787668057 | 29.44° C | 61% | 1012.4 hPa | 0 mm | - | 432 W/m² | - |
| 1787667996 | 29.44° C | 61% | 1012.4 hPa | 0 mm | - | 434 W/m² | - |
| 1787667933 | 29.44° C | 61% | 1012.4 hPa | 0 mm | - | 436 W/m² | - |
| 1787667872 | 29.44° C | 61% | 1012.5 hPa | 0 mm | - | 439 W/m² | - |
| 1787667812 | 29.44° C | 61% | 1012.4 hPa | 0 mm | - | 441 W/m² | - |
| 1787667752 | 29.44° C | 61% | 1012.4 hPa | 0 mm | - | 448 W/m² | - |
| 1787667695 | 29.44° C | 61% | 1012.5 hPa | 0 mm | - | 446 W/m² | - |
| 1787667632 | 29.44° C | 61% | 1012.5 hPa | 0 mm | - | 450 W/m² | - |
| 1787667573 | 29.44° C | 61% | 1012.5 hPa | 0 mm | - | 452 W/m² | - |
| 1787667511 | 29.44° C | 61% | 1012.6 hPa | 0 mm | - | 455 W/m² | - |
* Rain latest hour (hover to see other rain measurements)
** Current wind speed in m/s (hover to see current wind gust speed)